This is the latest recevied weather packets stored in our database for station/object N5JXS. If no packets are shown the sender has not sent any weather packets the latest 10 day(s).
| Time | Temp. | Humidity | Pressure | Rain* | Wind** | Luminosity | Snow |
|---|---|---|---|---|---|---|---|
| 1788148784 | 18.33° C | 51% | 1028.7 hPa | 0 mm | - | 0 W/m² | - |
| 1788148478 | 18.33° C | 50% | 1028.6 hPa | 0 mm | - | 0 W/m² | - |
| 1788148173 | 17.78° C | 51% | 1028.3 hPa | 0 mm | - | 0 W/m² | - |
| 1788147868 | 17.78° C | 52% | 1028.6 hPa | 0 mm | - | 0 W/m² | - |
| 1788147563 | 17.78° C | 51% | 1028.2 hPa | 0 mm | - | 0 W/m² | - |
| 1788147259 | 17.78° C | 52% | 1028.1 hPa | 0 mm | - | 0 W/m² | - |
| 1788146954 | 17.22° C | 52% | 1028.2 hPa | 0 mm | - | 0 W/m² | - |
| 1788146654 | 17.22° C | 54% | 1027.8 hPa | 0 mm | - | 0 W/m² | - |
| 1788146349 | 17.22° C | 54% | 1027.8 hPa | 0 mm | - | 0 W/m² | - |
| 1788146043 | 17.78° C | 56% | 1027.8 hPa | 0 mm | - | 0 W/m² | - |
| 1788145737 | 17.78° C | 53% | 1027.6 hPa | 0 mm | - | 0 W/m² | - |
| 1788145436 | 17.78° C | 53% | 1027.6 hPa | 0 mm | - | 0 W/m² | - |
| 1788145135 | 17.78° C | 52% | 1027.6 hPa | 0 mm | - | 0 W/m² | - |
| 1788144829 | 17.78° C | 52% | 1027.2 hPa | 0 mm | - | 0 W/m² | - |
| 1788144525 | 17.78° C | 55% | 1027.5 hPa | 0 mm | - | 0 W/m² | - |
| 1788144224 | 17.78° C | 55% | 1027.5 hPa | 0 mm | - | 0 W/m² | - |
| 1788143924 | 18.33° C | 55% | 1027.3 hPa | 0 mm | - | 0 W/m² | - |
| 1788143625 | 18.33° C | 55% | 1027.5 hPa | 0 mm | - | 0 W/m² | - |
| 1788143317 | 17.78° C | 55% | 1027.1 hPa | 0 mm | - | 0 W/m² | - |
| 1788143016 | 17.78° C | 56% | 1027 hPa | 0 mm | - | 0 W/m² | - |
| 1788142711 | 17.78° C | 57% | 1027 hPa | 0 mm | - | 0 W/m² | - |
| 1788142411 | 17.78° C | 58% | 1027 hPa | 0 mm | - | 0 W/m² | - |
| 1788142106 | 17.78° C | 57% | 1026.6 hPa | 0 mm | - | 0 W/m² | - |
| 1788141801 | 17.78° C | 57% | 1026.8 hPa | 0 mm | - | 0 W/m² | - |
| 1788141497 | 17.22° C | 58% | 1026.6 hPa | 0 mm | - | 0 W/m² | - |
* Rain latest hour (hover to see other rain measurements)
** Current wind speed in m/s (hover to see current wind gust speed)